SCP
0 0 0 0 0 0 0 0 0 0 0 0 0 0 0 0 0 0 0 0 0 0 0 0 0 0 0 0 0 0 0 0 0 0 0 0 0 0 0 0 0 0 0 0
0 0 0 0 0 0 0 0 0 0 0 0 0 0 0 0 0 0 0 0 0 0 0 0 0 0 0 0 0 0 0 0 0 0 0 0 0 0 0 0 0 0 0 0
0 0 0 0 0 0 0 0 0 0 0 0 0 0 0 0 0 0 0 0 0 0 0 0 0 0 0 0 0 0 0 0 0 0 0 0 0 0 0 0 0 0 0 0
0 0 0 0 0 0 0 0 0 0 0 0 0 0 0 0 0 0 0 0 0 0 0 0 0 0 0 0 0 0 0 0 0 0 0 0 0 0 0 0 0 0 0 0
0 0 0 0 0 0 0 0 0 0 0 0 0 0 0 0 0 0 0 0 0 0 0 0 0 0 0 0 0 0 0 0 0 0 0 0 0 0 0 0 0 0 0 0
0 0 0 0 0 0 0 0 0 0 0 0 0 0 0 0 0 0 0 0 0 0 0 0 0 0 0 0 0 0 0 0 0 0 0 0 0 0 0 0 0 0 0 0
0 0 0 0 0 0 0 0 0 0 0 0 0 0 0 0 0 0 0 0 0 0 0 0 0 0 0 0 0 0 0 0 0 0 0 0 0 0 0 0 0 0 0 0
0 0 0 0 0 0 0 0 0 0 0 0 0 0 0 0 0 0 0 0 0 0 0 0 0 0 0 0 0 0 0 0 0 0 0 0 0 0 0 0 0 0 0 0
0 0 0 0 0 0 0 0 0 0 0 0 0 0 0 0 0 0 0 0 0 0 0 0 0 0 0 0 0 0 0 0 0 0 0 0 0 0 0 0 0 0 0 0
0 0 0 0 0 0 0 0 0 0 0 0 0 0 0 0 0 0 0 0 0 0 0 0 0 0 0 0 0 0 0 0 0 0 0 0 0 0 0 0 0 0 0 0
0 0 0 0 0 0 0 0 0 0 0 0 0 0 0 0 0 0 0 0 0 0 0 0 0 0 0 0 0 0 0 0 0 0 0 0 0 0 0 0 0 0 0 0
0 0 0 0 0 0 0 0 0 0 0 0 0 0 0 0 0 0 0 0 0 0 0 0 0 0 0 0 0 0 0 0 0 0 0 0 0 0 0 0 0 0 0 0
0 0 0 0 0 0 0 0 0 0 0 0 0 0 0 0 0 0 0 0 0 0 0 0 0 0 0 0 0 0 0 0 0 0 0 0 0 0 0 0 0 0 0 0
0 0 0 0 0 0 0 0 0 0 0 0 0 0 0 0 0 0 0 0 0 0 0 0 0 0 0 0 0 0 0 0 0 0 0 0 0 0 0 0 0 0 0 0
0 0 0 0 0 0 0 0 0 0 0 0 0 0 0 0 0 0 0 0 0 0 0 0 0 0 0 0 0 0 0 0 0 0 0 0 0 0 0 0 0 0 0 0
0 0 0 0 0 0 0 0 0 0 0 0 0 0 0 0 0 0 0 0 0 0 0 0 0 0 0 0 0 0 0 0 0 0 0 0 0 0 0 -0 0 0 0 0
0 0 0 0 0 0 0 0 0 0 0 0 0 0 0 0 0 0 0 0 0 0 0 0 0 0 0 0 0 0 0 0 0 0 0 0 0 0 0 -0 0 0 0 0
0 0 0 0 0 0 0 0 0 0 0 0 0 0 0 0 0 0 0 0 0 0 0 0 0 0 0 0 0 0 0 0 0 0 0 0 0 0 0 -0 0 0 0 0
0 0 0 0 0 0 0 0 0 0 0 0 0 0 0 0 0 0 0 0 0 0 0 0 0 0 0 0 0 0 0 0 0 0 0 0 0 0 0 0 0 0 0 0
0 0 0 0 0 0 0 0 0 0 0 0 0 0 0 0 0 0 0 0 0 0 0 0 0 0 0 0 0 0 0 0 0 0 0 0 0 0 0 0 0 0 0 0
0 0 0 0 0 0 0 0 0 0 0 0 0 0 0 0 0 0 0 0 0 0 0 0 0 0 0 0 0 0 0 0 0 0 0 0 0 0 0 0 0 0 0 0
0 0 0 0 0 0 0 0 0 0 0 0 0 0 0 0 0 0 0 0 0 0 0 0 0 0 0 0 0 0 0 0 0 0 0 0 0 0 0 0 0 0 0 0
0 0 0 0 0 0 0 0 0 0 0 0 0 0 0 0 0 0 0 0 0 0 0 0 0 0 0 0 0 0 0 0 0 0 0 0 0 0 0 0 0 0 0 0
0 0 0 0 0 0 0 0 0 0 0 0 0 0 0 0 0 0 0 0 0 0 0 0 0 0 0 0 0 0 0 0 0 0 0 0 0 0 0 0 0 0 0 0
0 0 0 0 0 0 -0 -0 0 0 0 0 0 0 0 0 0 0 0 0 0 0 0 0 0 0 0 0 0 0 0 0 0 0 0 0 0 0 0 0 0 0 0 0
0 0 0 0 0 0 -0 -0 0 0 0 0 0 0 0 -0 0 0 0 0 0 0 0 0 0 0 0 0 0 0 0 0 0 0 0 0 0 0 0 0 0 0 0 0
Wind_Speed
1 3 1 4 5 4 4 4 3 2 3 4 5 5 5 5 6 6 6 6 6 6 5 6 7 6 6 6 6 5 5 4 4 3 3 3 2 2 2 2 3 4 4 4
4 1 4 3 4 5 4 4 2 2 3 3 4 3 4 6 8 9 10 8 7 5 5 5 6 6 6 6 6 6 5 4 4 3 2 2 2 1 1 1 3 3 4 3
3 4 3 3 3 3 2 5 5 4 1 3 4 1 3 4 5 7 8 9 8 10 10 8 7 6 6 6 6 6 5 5 4 4 3 3 3 3 2 2 2 2 3 3
2 3 2 3 2 4 2 3 6 6 4 1 3 3 6 5 5 8 9 9 9 9 9 9 8 7 7 6 6 6 6 5 4 4 4 4 3 2 1 0 1 2 3 3
3 1 3 3 2 4 3 3 3 3 3 1 1 3 6 4 6 9 10 11 10 10 11 10 9 8 7 7 6 6 5 5 4 4 5 5 3 2 1 1 2 2 3 3
3 2 3 3 2 4 4 4 4 4 4 1 5 4 6 6 11 11 11 11 11 11 10 9 8 7 6 6 6 6 6 4 4 5 5 5 5 4 3 2 2 2 2 3
2 2 2 3 3 2 5 5 3 3 2 5 3 3 8 8 9 12 13 12 12 11 10 10 9 8 7 7 7 6 7 5 4 5 4 4 4 4 4 3 3 2 1 1
1 3 3 3 5 5 4 7 6 4 4 4 1 4 7 5 7 9 11 11 11 11 10 11 11 10 9 9 8 7 7 5 4 5 4 3 4 3 3 3 3 2 1 1
4 4 3 3 3 6 4 3 5 5 2 0 3 3 5 1 4 7 9 10 11 12 12 12 11 10 9 9 8 8 8 6 5 5 4 3 4 4 3 3 3 2 1 1
6 2 2 2 3 1 4 6 4 4 3 1 3 3 4 4 6 8 10 12 11 11 11 11 10 10 9 8 7 7 7 7 6 5 5 4 3 4 4 4 3 3 2 2
4 4 1 1 4 5 3 2 4 3 4 4 2 6 6 9 9 11 13 13 13 13 12 11 10 9 8 7 7 6 6 6 5 5 4 5 4 3 4 3 3 2 2 2
5 5 2 5 5 5 5 6 6 4 3 3 3 7 5 7 9 10 11 11 12 13 12 11 10 9 8 8 7 7 6 6 6 5 5 5 4 4 4 3 2 3 3 2
6 6 3 4 4 0 2 4 5 5 4 3 3 7 4 2 6 8 10 10 10 11 11 10 9 9 9 9 8 7 7 7 6 6 6 5 4 4 4 3 3 3 3 3
7 5 6 7 6 4 3 3 4 5 4 3 6 6 5 3 6 7 9 11 10 11 12 11 10 10 10 9 8 8 7 7 7 6 6 6 5 4 4 3 3 3 3 3
6 4 4 4 4 4 5 5 5 6 7 7 7 7 9 9 10 10 10 10 10 10 11 12 12 10 9 8 8 8 7 7 8 7 6 6 5 4 4 4 3 3 3 4
4 4 3 2 3 3 3 5 6 7 6 6 4 6 8 6 6 6 9 11 12 12 13 13 12 12 12 11 10 8 8 8 8 8 7 6 6 5 4 4 4 4 4 3
3 5 3 3 3 1 4 7 7 5 5 7 7 9 4 4 8 11 12 12 13 13 12 12 13 13 12 12 11 11 9 8 8 8 7 6 6 6 5 5 4 4 3 3
6 5 4 2 1 4 8 5 5 5 5 5 6 5 6 8 9 9 10 13 13 12 11 11 11 11 10 10 9 9 9 9 9 8 7 7 7 6 5 5 4 3 3 3
6 7 4 4 3 5 6 4 3 4 4 3 4 4 4 4 4 1 4 9 12 12 11 10 10 11 10 10 10 10 9 9 9 8 8 7 7 7 6 5 4 3 3 2
4 5 5 4 3 5 7 7 3 4 3 4 2 3 3 5 4 5 4 5 7 8 7 8 8 8 9 9 10 11 10 9 10 10 9 8 7 7 7 6 4 3 3 3
2 2 3 4 3 6 7 5 3 4 6 4 2 4 5 6 7 6 5 6 7 8 7 8 9 9 9 9 11 10 9 10 9 8 7 7 7 7 6 5 3 3 3 3
5 4 4 4 3 6 5 1 3 6 3 2 2 3 4 3 3 4 5 6 6 7 7 8 9 8 7 9 11 10 10 8 7 8 8 7 6 6 5 5 4 3 4 3
5 7 6 7 7 6 2 3 3 3 3 2 2 2 4 4 4 4 5 5 6 7 7 7 8 7 6 8 10 11 8 8 9 8 8 7 6 5 5 6 5 3 3 3
3 1 3 2 3 3 2 1 1 1 2 1 2 3 4 4 4 5 5 5 5 5 6 6 8 8 6 7 8 9 9 9 10 9 8 6 6 5 4 4 4 4 4 3
4 2 2 1 3 2 2 2 1 0 2 2 1 1 3 5 4 5 5 5 5 4 4 6 8 8 8 7 7 7 9 10 9 8 7 6 5 6 5 4 3 5 5 6
3 3 4 5 5 3 5 4 1 1 1 1 2 1 1 4 5 5 5 5 5 5 5 5 6 7 7 7 7 7 8 10 10 8 7 5 5 4 4 4 1 1 3 5
Wind_Direction
30 80 183 216 191 166 146 135 138 176 182 136 153 171 185 184 167 170 167 166 163 160 156 141 135 133 125 118 117 120 118 115 108 95 90 82 64 45 45 53 60 60 58 58
42 267 230 199 162 142 132 129 139 160 193 139 154 193 197 188 186 181 176 177 176 162 148 147 141 141 134 133 129 126 126 124 120 122 127 125 117 90 72 45 42 47 56 53
184 235 190 156 166 144 160 170 175 164 117 90 114 297 244 216 192 185 182 180 178 169 161 159 151 144 138 142 147 142 137 130 127 119 97 78 62 47 35 30 20 14 44 48
243 239 151 153 189 147 196 196 167 154 124 187 162 204 255 217 202 193 188 183 184 171 163 162 158 154 153 157 152 141 139 135 130 120 114 116 116 121 174 165 32 21 34 43
255 205 151 171 201 151 186 179 166 160 135 95 197 168 264 200 208 205 193 186 183 176 168 166 166 163 158 152 147 145 136 133 133 125 127 121 119 131 108 73 65 41 22 27
231 220 182 188 180 150 131 66 49 52 80 257 223 179 256 210 206 197 192 183 180 176 167 164 162 153 149 144 140 141 136 137 139 131 133 135 135 130 115 101 89 51 22 15
324 290 197 144 103 64 103 91 54 20 10 254 229 189 245 227 203 189 184 180 178 175 165 162 162 162 157 152 151 147 142 140 141 133 135 144 141 139 142 141 130 114 65 26
182 272 221 180 164 168 168 138 153 177 215 273 282 225 260 252 196 178 174 171 169 172 169 171 172 169 165 162 158 153 150 149 148 141 142 138 135 133 140 144 140 140 142 153
180 240 249 194 161 143 140 169 171 142 170 267 281 285 309 17 143 160 163 165 173 176 175 175 173 171 168 166 165 163 156 153 157 154 140 131 133 134 136 134 127 131 139 131
160 190 242 183 82 70 149 153 110 121 148 239 289 255 237 220 187 176 173 177 179 177 177 175 173 173 172 168 164 162 158 162 162 157 151 141 141 140 135 124 123 121 118 96
149 145 267 137 188 193 151 140 130 135 159 154 241 268 229 203 193 184 187 183 177 176 178 175 175 174 168 162 161 164 164 157 156 154 142 130 135 134 121 117 126 127 113 107
158 131 201 244 246 192 175 181 154 153 209 167 176 266 265 200 190 183 185 182 179 177 176 172 171 166 164 166 168 169 166 162 162 155 141 138 137 127 116 119 126 120 111 106
143 120 94 346 341 338 209 198 169 147 131 154 177 264 299 182 180 185 179 175 174 171 169 168 166 169 172 174 171 171 169 166 160 148 139 136 134 129 128 131 127 118 108 94
123 123 159 187 211 206 224 219 182 144 157 202 218 241 274 211 187 186 180 175 171 172 172 171 171 174 176 177 173 170 169 163 154 146 142 141 144 142 138 129 121 115 107 97
116 147 193 215 217 198 217 224 212 195 193 191 223 223 234 213 197 190 181 172 169 173 176 177 177 177 175 173 171 168 166 163 155 148 149 153 149 138 127 121 116 107 101 102
116 149 170 248 243 220 247 246 230 223 211 210 218 246 240 214 185 176 174 173 177 181 183 182 179 177 177 177 174 169 169 166 154 152 155 151 143 138 135 131 120 107 99 96
146 143 142 242 281 21 272 239 218 215 205 185 210 235 221 174 183 187 183 180 182 185 184 183 182 181 181 180 175 174 173 161 154 155 155 154 149 147 149 139 125 124 119 105
150 143 147 182 98 229 244 242 193 197 221 208 211 216 188 189 190 191 184 182 185 185 184 183 181 179 178 174 170 166 159 158 158 159 160 159 152 152 149 139 140 140 130 127
157 148 140 145 189 262 287 278 198 184 249 243 207 219 211 182 108 342 206 186 185 185 181 180 179 175 171 170 166 156 157 159 161 167 169 166 159 155 154 155 157 152 139 141
107 122 133 144 166 225 252 267 240 123 271 285 191 192 187 128 141 237 211 178 176 173 169 166 160 154 161 168 160 156 162 165 175 178 174 166 161 161 165 168 161 152 148 158
84 85 139 162 196 253 265 284 72 130 237 267 195 177 161 172 196 204 172 164 170 168 164 157 154 159 168 161 154 158 165 179 181 168 158 158 163 166 164 158 153 148 142 137
175 168 182 153 176 249 277 92 161 218 232 204 175 171 165 174 159 145 152 155 153 153 153 153 155 163 162 158 157 163 177 177 155 150 152 159 163 164 156 149 147 143 141 140
187 186 183 182 205 232 232 197 225 174 166 187 160 170 151 143 146 146 151 152 153 154 153 153 155 153 154 163 164 170 175 155 147 148 155 159 157 156 153 155 154 147 149 153
273 159 136 182 256 264 268 276 49 135 168 186 155 138 137 147 152 149 150 152 150 148 150 147 147 151 161 168 167 167 159 153 150 155 160 159 156 156 154 157 162 162 169 172
237 148 125 202 266 332 317 283 238 34 69 63 69 117 147 144 154 161 161 161 157 150 148 150 156 162 166 160 157 154 152 151 153 157 159 159 161 163 164 169 180 181 193 189
219 171 163 214 225 201 244 253 233 147 150 154 132 98 144 156 163 162 167 168 160 155 149 150 153 154 153 151 153 153 153 153 153 157 163 164 163 164 161 158 159 223 202 212